Time,TemperatureF,DewpointF,PressureIn,WindDirection,WindDirectionDegrees,WindSpeedMPH,WindSpeedGustMPH,Humidity,HourlyPrecipIn,Conditions,Clouds,dailyrainin,SoftwareType,DateUTC
2013-08-13 00:00:00,64.3,54.7,29.86,ESE,111,0.0,0.0,71,0.00,,,0.00,VWS V14.01,2013-08-13 06:00:00,
2013-08-13 00:01:00,64.5,54.1,29.88,East,84,2.0,2.0,69,0.00,,,0.00,VWS V14.01,2013-08-13 06:01:00,
2013-08-13 00:05:00,64.1,54.5,29.86,East,94,0.0,0.0,71,0.00,,,0.00,VWS V14.01,2013-08-13 06:05:00,
2013-08-13 00:06:00,64.4,54.8,29.88,East,84,0.0,0.0,71,0.00,,,0.00,VWS V14.01,2013-08-13 06:06:00,
2013-08-13 00:10:00,63.5,54.3,29.86,East,94,0.0,0.0,72,0.00,,,0.00,VWS V14.01,2013-08-13 06:10:00,
2013-08-13 00:11:00,64.2,55.4,29.88,East,85,0.0,0.0,73,0.00,,,0.00,VWS V14.01,2013-08-13 06:11:00,
2013-08-13 00:15:00,63.4,56.1,29.86,East,99,0.0,0.0,77,0.00,,,0.00,VWS V14.01,2013-08-13 06:15:00,
2013-08-13 00:16:00,63.7,55.6,29.88,East,85,0.0,0.0,75,0.00,,,0.00,VWS V14.01,2013-08-13 06:16:00,
2013-08-13 00:20:00,63.7,55.6,29.86,East,88,0.0,0.0,75,0.00,,,0.00,VWS V14.01,2013-08-13 06:20:00,
2013-08-13 00:21:00,63.3,55.6,29.88,East,84,0.0,0.0,76,0.00,,,0.00,VWS V14.01,2013-08-13 06:21:00,
2013-08-13 00:25:00,64.7,55.1,29.86,WNW,287,0.0,0.0,71,0.00,,,0.00,VWS V14.01,2013-08-13 06:25:00,
2013-08-13 00:26:00,63.2,55.5,29.88,East,85,0.0,0.0,76,0.00,,,0.00,VWS V14.01,2013-08-13 06:26:00,
2013-08-13 00:30:00,64.9,55.3,29.87,West,281,0.0,0.0,71,0.00,,,0.00,VWS V14.01,2013-08-13 06:30:00,
2013-08-13 00:31:00,62.9,55.6,29.88,East,84,0.0,0.0,77,0.00,,,0.00,VWS V14.01,2013-08-13 06:31:00,
2013-08-13 00:35:00,64.4,55.2,29.87,West,268,3.0,3.0,72,0.00,,,0.00,VWS V14.01,2013-08-13 06:35:00,
2013-08-13 00:36:00,62.8,54.0,29.89,NNW,338,0.0,0.0,73,0.00,,,0.00,VWS V14.01,2013-08-13 06:36:00,
2013-08-13 00:40:00,63.4,53.5,29.87,West,263,3.0,4.0,70,0.00,,,0.00,VWS V14.01,2013-08-13 06:40:00,
2013-08-13 00:41:00,62.0,53.6,29.89,ENE,74,0.0,0.0,74,0.00,,,0.00,VWS V14.01,2013-08-13 06:41:00,
2013-08-13 00:45:00,63.7,53.0,29.87,WSW,249,1.0,5.0,68,0.00,,,0.00,VWS V14.01,2013-08-13 06:45:00,
2013-08-13 00:46:00,61.3,53.3,29.89,ENE,68,0.0,0.0,75,0.00,,,0.00,VWS V14.01,2013-08-13 06:46:00,
2013-08-13 00:50:00,64.3,53.5,29.87,SE,129,2.0,2.0,68,0.00,,,0.00,VWS V14.01,2013-08-13 06:50:00,
2013-08-13 00:51:00,61.3,53.0,29.89,ENE,68,0.0,0.0,74,0.00,,,0.00,VWS V14.01,2013-08-13 06:51:00,
2013-08-13 00:55:00,64.3,53.9,29.87,SE,124,0.0,2.0,69,0.00,,,0.00,VWS V14.01,2013-08-13 06:55:00,
2013-08-13 00:56:00,61.1,52.8,29.88,North,359,3.0,4.0,74,0.00,,,0.00,VWS V14.01,2013-08-13 06:56:00,
2013-08-13 01:00:00,64.5,53.7,29.88,ESE,114,2.0,2.0,68,0.00,,,0.00,VWS V14.01,2013-08-13 07:00:00,
2013-08-13 01:01:00,60.6,53.0,29.88,NE,44,1.0,2.0,76,0.00,,,0.00,VWS V14.01,2013-08-13 07:01:00,
2013-08-13 01:05:00,64.5,54.9,29.88,East,85,0.0,2.0,71,0.00,,,0.00,VWS V14.01,2013-08-13 07:05:00,
2013-08-13 01:06:00,60.1,53.6,29.89,ENE,78,1.0,2.0,79,0.00,,,0.00,VWS V14.01,2013-08-13 07:06:00,
2013-08-13 01:10:00,64.3,55.1,29.88,East,85,0.0,0.0,72,0.00,,,0.00,VWS V14.01,2013-08-13 07:10:00,
2013-08-13 01:11:00,60.5,54.7,29.89,NE,49,1.0,2.0,81,0.00,,,0.00,VWS V14.01,2013-08-13 07:11:00,
2013-08-13 01:15:00,63.8,55.4,29.88,East,85,0.0,0.0,74,0.00,,,0.00,VWS V14.01,2013-08-13 07:15:00,
2013-08-13 01:16:00,60.9,54.7,29.89,NNE,29,2.0,2.0,80,0.00,,,0.00,VWS V14.01,2013-08-13 07:16:00,
2013-08-13 01:20:00,63.4,55.7,29.88,East,84,0.0,0.0,76,0.00,,,0.00,VWS V14.01,2013-08-13 07:20:00,
2013-08-13 01:21:00,61.2,55.0,29.89,NNE,26,0.0,1.0,80,0.00,,,0.00,VWS V14.01,2013-08-13 07:21:00,
2013-08-13 01:25:00,63.2,55.5,29.88,East,85,0.0,0.0,76,0.00,,,0.00,VWS V14.01,2013-08-13 07:25:00,
2013-08-13 01:26:00,61.3,55.4,29.89,WSW,250,2.0,2.0,81,0.00,,,0.00,VWS V14.01,2013-08-13 07:26:00,
2013-08-13 01:30:00,63.0,55.7,29.88,East,84,0.0,0.0,77,0.00,,,0.00,VWS V14.01,2013-08-13 07:30:00,
2013-08-13 01:31:00,61.4,54.8,29.89,SW,233,3.0,4.0,79,0.00,,,0.00,VWS V14.01,2013-08-13 07:31:00,
2013-08-13 01:35:00,62.8,54.0,29.88,NNW,337,0.0,0.0,73,0.00,,,0.00,VWS V14.01,2013-08-13 07:35:00,
2013-08-13 01:36:00,61.5,54.2,29.89,SW,235,0.0,1.0,77,0.00,,,0.00,VWS V14.01,2013-08-13 07:36:00,
2013-08-13 01:40:00,62.3,53.2,29.89,ENE,73,0.0,0.0,72,0.00,,,0.00,VWS V14.01,2013-08-13 07:40:00,
2013-08-13 01:41:00,61.8,54.2,29.89,WSW,242,1.0,1.0,76,0.00,,,0.00,VWS V14.01,2013-08-13 07:41:00,
2013-08-13 01:45:00,61.4,53.4,29.89,ENE,68,0.0,0.0,75,0.00,,,0.00,VWS V14.01,2013-08-13 07:45:00,
2013-08-13 01:46:00,61.5,53.2,29.89,West,268,2.0,2.0,74,0.00,,,0.00,VWS V14.01,2013-08-13 07:46:00,
2013-08-13 01:50:00,61.3,53.0,29.89,ENE,68,0.0,0.0,74,0.00,,,0.00,VWS V14.01,2013-08-13 07:50:00,
2013-08-13 01:51:00,61.8,53.8,29.89,NW,321,2.0,3.0,75,0.00,,,0.00,VWS V14.01,2013-08-13 07:51:00,
2013-08-13 01:55:00,61.2,53.2,29.89,North,356,3.0,3.0,75,0.00,,,0.00,VWS V14.01,2013-08-13 07:55:00,
2013-08-13 01:56:00,62.1,54.1,29.89,NW,323,1.0,2.0,75,0.00,,,0.00,VWS V14.01,2013-08-13 07:56:00,
2013-08-13 02:00:00,60.8,53.5,29.89,NNE,18,2.0,4.0,77,0.00,,,0.00,VWS V14.01,2013-08-13 08:00:00,
2013-08-13 02:01:00,62.4,54.8,29.89,North,8,2.0,3.0,76,0.00,,,0.00,VWS V14.01,2013-08-13 08:01:00,
2013-08-13 02:05:00,60.2,53.7,29.88,East,86,1.0,2.0,79,0.00,,,0.00,VWS V14.01,2013-08-13 08:05:00,
2013-08-13 02:06:00,62.4,56.2,29.89,NNW,344,1.0,2.0,80,0.00,,,0.00,VWS V14.01,2013-08-13 08:06:00,
2013-08-13 02:10:00,60.4,54.5,29.88,ENE,72,1.0,2.0,81,0.00,,,0.00,VWS V14.01,2013-08-13 08:10:00,
2013-08-13 02:11:00,62.4,55.8,29.89,WNW,285,1.0,2.0,79,0.00,,,0.00,VWS V14.01,2013-08-13 08:11:00,
2013-08-13 02:15:00,60.8,54.6,29.89,North,9,2.0,4.0,80,0.00,,,0.00,VWS V14.01,2013-08-13 08:15:00,
2013-08-13 02:16:00,62.5,55.9,29.90,WSW,253,0.0,2.0,79,0.00,,,0.00,VWS V14.01,2013-08-13 08:16:00,
2013-08-13 02:20:00,61.2,55.0,29.89,NNE,26,1.0,2.0,80,0.00,,,0.00,VWS V14.01,2013-08-13 08:20:00,
2013-08-13 02:21:00,62.8,55.1,29.89,North,359,4.0,6.0,76,0.00,,,0.00,VWS V14.01,2013-08-13 08:21:00,
2013-08-13 02:25:00,61.2,55.3,29.89,NNE,26,1.0,1.0,81,0.00,,,0.00,VWS V14.01,2013-08-13 08:25:00,
2013-08-13 02:26:00,63.0,54.2,29.90,WNW,302,0.0,1.0,73,0.00,,,0.00,VWS V14.01,2013-08-13 08:26:00,
2013-08-13 02:30:00,61.4,55.2,29.89,SW,233,4.0,4.0,80,0.00,,,0.00,VWS V14.01,2013-08-13 08:30:00,
2013-08-13 02:31:00,63.1,55.1,29.90,SW,214,0.0,1.0,75,0.00,,,0.00,VWS V14.01,2013-08-13 08:31:00,
2013-08-13 02:35:00,61.4,54.1,29.89,SW,235,0.0,4.0,77,0.00,,,0.00,VWS V14.01,2013-08-13 08:35:00,
2013-08-13 02:36:00,62.9,55.2,29.91,WSW,255,3.0,3.0,76,0.00,,,0.00,VWS V14.01,2013-08-13 08:36:00,
2013-08-13 02:40:00,61.7,54.1,29.89,WSW,241,1.0,2.0,76,0.00,,,0.00,VWS V14.01,2013-08-13 08:40:00,
2013-08-13 02:41:00,62.8,54.8,29.91,WNW,295,2.0,2.0,75,0.00,,,0.00,VWS V14.01,2013-08-13 08:41:00,
2013-08-13 02:45:00,61.5,53.5,29.89,WNW,289,1.0,3.0,75,0.00,,,0.00,VWS V14.01,2013-08-13 08:45:00,
2013-08-13 02:46:00,62.7,54.7,29.91,WNW,294,1.0,1.0,75,0.00,,,0.00,VWS V14.01,2013-08-13 08:46:00,
2013-08-13 02:50:00,61.7,53.7,29.90,WNW,293,2.0,3.0,75,0.00,,,0.00,VWS V14.01,2013-08-13 08:50:00,
2013-08-13 02:51:00,62.4,54.8,29.91,West,276,2.0,2.0,76,0.00,,,0.00,VWS V14.01,2013-08-13 08:51:00,
2013-08-13 02:55:00,62.0,54.0,29.89,NW,323,2.0,3.0,75,0.00,,,0.00,VWS V14.01,2013-08-13 08:55:00,
2013-08-13 02:56:00,62.8,54.8,29.91,WSW,257,0.0,0.0,75,0.00,,,0.00,VWS V14.01,2013-08-13 08:56:00,
2013-08-13 03:00:00,62.3,54.3,29.89,North,4,3.0,3.0,75,0.00,,,0.00,VWS V14.01,2013-08-13 09:00:00,
2013-08-13 03:01:00,63.0,54.2,29.91,West,276,2.0,3.0,73,0.00,,,0.00,VWS V14.01,2013-08-13 09:01:00,
2013-08-13 03:05:00,62.4,56.2,29.89,NNW,345,1.0,3.0,80,0.00,,,0.00,VWS V14.01,2013-08-13 09:05:00,
2013-08-13 03:06:00,63.5,54.3,29.91,WNW,293,2.0,4.0,72,0.00,,,0.00,VWS V14.01,2013-08-13 09:06:00,
2013-08-13 03:10:00,62.4,55.8,29.89,NW,315,1.0,2.0,79,0.00,,,0.00,VWS V14.01,2013-08-13 09:10:00,
2013-08-13 03:11:00,62.9,54.5,29.92,SW,235,2.0,3.0,74,0.00,,,0.00,VWS V14.01,2013-08-13 09:11:00,
2013-08-13 03:15:00,62.5,55.9,29.90,WSW,248,1.0,2.0,79,0.00,,,0.00,VWS V14.01,2013-08-13 09:15:00,
2013-08-13 03:16:00,62.5,54.5,29.92,WSW,245,2.0,3.0,75,0.00,,,0.00,VWS V14.01,2013-08-13 09:16:00,
2013-08-13 03:20:00,62.8,55.8,29.89,North,359,4.0,4.0,78,0.00,,,0.00,VWS V14.01,2013-08-13 09:20:00,
2013-08-13 03:21:00,62.9,54.1,29.92,SW,224,4.0,5.0,73,0.00,,,0.00,VWS V14.01,2013-08-13 09:21:00,
2013-08-13 03:25:00,62.9,54.5,29.90,WNW,302,1.0,6.0,74,0.00,,,0.00,VWS V14.01,2013-08-13 09:25:00,
2013-08-13 03:26:00,63.5,53.9,29.92,SW,218,5.0,6.0,71,0.00,,,0.00,VWS V14.01,2013-08-13 09:26:00,
2013-08-13 03:30:00,63.1,55.1,29.90,SW,214,1.0,2.0,75,0.00,,,0.00,VWS V14.01,2013-08-13 09:30:00,
2013-08-13 03:31:00,63.7,54.1,29.93,SW,222,6.0,6.0,71,0.00,,,0.00,VWS V14.01,2013-08-13 09:31:00,
2013-08-13 03:35:00,62.9,54.5,29.90,WSW,239,1.0,2.0,74,0.00,,,0.00,VWS V14.01,2013-08-13 09:35:00,
2013-08-13 03:36:00,63.7,54.5,29.93,SW,217,1.0,1.0,72,0.00,,,0.00,VWS V14.01,2013-08-13 09:36:00,
2013-08-13 03:40:00,62.8,54.8,29.91,West,281,2.0,5.0,75,0.00,,,0.00,VWS V14.01,2013-08-13 09:40:00,
2013-08-13 03:41:00,63.6,54.4,29.93,NW,325,1.0,2.0,72,0.00,,,0.00,VWS V14.01,2013-08-13 09:41:00,
2013-08-13 03:45:00,62.8,54.8,29.91,WNW,294,0.0,2.0,75,0.00,,,0.00,VWS V14.01,2013-08-13 09:45:00,
2013-08-13 03:46:00,63.4,55.3,29.94,NW,323,1.0,1.0,75,0.00,,,0.00,VWS V14.01,2013-08-13 09:46:00,
2013-08-13 03:50:00,62.5,54.8,29.91,WNW,294,0.0,1.0,76,0.00,,,0.00,VWS V14.01,2013-08-13 09:50:00,
2013-08-13 03:51:00,63.1,56.1,29.94,WNW,294,3.0,3.0,78,0.00,,,0.00,VWS V14.01,2013-08-13 09:51:00,
2013-08-13 03:55:00,62.7,54.7,29.91,WSW,255,0.0,2.0,75,0.00,,,0.00,VWS V14.01,2013-08-13 09:55:00,
2013-08-13 03:56:00,63.7,56.0,29.95,NW,318,4.0,8.0,76,0.00,,,0.00,VWS V14.01,2013-08-13 09:56:00,
2013-08-13 04:00:00,62.9,54.5,29.91,West,262,2.0,3.0,74,0.00,,,0.00,VWS V14.01,2013-08-13 10:00:00,
2013-08-13 04:01:00,65.6,56.0,29.95,NW,304,6.0,6.0,71,0.00,,,0.00,VWS V14.01,2013-08-13 10:01:00,
2013-08-13 04:05:00,63.4,54.6,29.91,WNW,290,2.0,3.0,73,0.00,,,0.00,VWS V14.01,2013-08-13 10:05:00,
2013-08-13 04:06:00,66.3,55.4,29.95,NW,309,8.0,11.0,68,0.00,,,0.00,VWS V14.01,2013-08-13 10:06:00,
2013-08-13 04:10:00,63.1,54.7,29.92,SW,232,1.0,4.0,74,0.00,,,0.00,VWS V14.01,2013-08-13 10:10:00,
2013-08-13 04:12:00,66.3,56.2,29.96,NNW,348,4.0,8.0,70,0.00,,,0.00,VWS V14.01,2013-08-13 10:12:00,
2013-08-13 04:15:00,62.6,54.6,29.92,WSW,252,3.0,3.0,75,0.00,,,0.00,VWS V14.01,2013-08-13 10:15:00,
2013-08-13 04:17:00,65.7,56.0,29.97,NNW,328,6.0,7.0,71,0.00,,,0.00,VWS V14.01,2013-08-13 10:17:00,
2013-08-13 04:20:00,62.7,53.9,29.92,WSW,238,4.0,6.0,73,0.00,,,0.00,VWS V14.01,2013-08-13 10:20:00,
2013-08-13 04:22:00,65.5,55.9,29.97,WNW,299,7.0,7.0,71,0.00,,,0.00,VWS V14.01,2013-08-13 10:22:00,
2013-08-13 04:27:00,65.3,55.7,29.97,NNW,341,3.0,6.0,71,0.00,,,0.00,VWS V14.01,2013-08-13 10:27:00,
2013-08-13 04:30:00,63.7,54.1,29.93,SW,221,3.0,6.0,71,0.00,,,0.00,VWS V14.01,2013-08-13 10:30:00,
2013-08-13 04:32:00,64.6,56.5,29.97,NNW,335,6.0,8.0,75,0.00,,,0.00,VWS V14.01,2013-08-13 10:32:00,
2013-08-13 04:35:00,63.7,54.5,29.93,SSE,159,1.0,6.0,72,0.00,,,0.00,VWS V14.01,2013-08-13 10:35:00,
2013-08-13 04:37:00,63.7,56.0,29.98,NNW,328,3.0,6.0,76,0.00,,,0.00,VWS V14.01,2013-08-13 10:37:00,
2013-08-13 04:40:00,63.6,54.4,29.93,SW,217,0.0,1.0,72,0.00,,,0.00,VWS V14.01,2013-08-13 10:40:00,
2013-08-13 04:42:00,63.2,56.2,29.99,NNW,341,2.0,5.0,78,0.00,,,0.00,VWS V14.01,2013-08-13 10:42:00,
2013-08-13 04:45:00,63.5,55.1,29.94,NW,323,1.0,2.0,74,0.00,,,0.00,VWS V14.01,2013-08-13 10:45:00,
2013-08-13 04:47:00,63.0,56.0,30.01,NW,305,3.0,5.0,78,0.00,,,0.00,VWS V14.01,2013-08-13 10:47:00,
2013-08-13 04:50:00,63.2,55.9,29.94,NW,321,2.0,2.0,77,0.00,,,0.00,VWS V14.01,2013-08-13 10:50:00,
2013-08-13 04:52:00,62.8,56.2,30.01,NNW,342,5.0,6.0,79,0.00,,,0.00,VWS V14.01,2013-08-13 10:52:00,
2013-08-13 04:55:00,63.4,56.4,29.95,NW,307,6.0,6.0,78,0.00,,,0.00,VWS V14.01,2013-08-13 10:55:00,
2013-08-13 04:57:00,62.5,56.2,30.01,WNW,300,8.0,9.0,80,0.01,,,0.01,VWS V14.01,2013-08-13 10:57:00,
2013-08-13 05:00:00,65.2,56.0,29.94,WNW,298,5.0,8.0,72,0.00,,,0.00,VWS V14.01,2013-08-13 11:00:00,
2013-08-13 05:02:00,61.9,56.3,30.01,NW,314,6.0,8.0,82,0.04,,,0.04,VWS V14.01,2013-08-13 11:02:00,
2013-08-13 05:05:00,66.2,55.7,29.95,NW,319,6.0,10.0,69,0.00,,,0.00,VWS V14.01,2013-08-13 11:05:00,
2013-08-13 05:07:00,61.8,56.2,30.01,NW,316,4.0,10.0,82,0.04,,,0.04,VWS V14.01,2013-08-13 11:07:00,
2013-08-13 05:10:00,66.4,55.9,29.96,NNW,328,7.0,11.0,69,0.00,,,0.00,VWS V14.01,2013-08-13 11:10:00,
2013-08-13 05:12:00,61.3,56.4,30.02,NW,318,5.0,7.0,84,0.04,,,0.04,VWS V14.01,2013-08-13 11:12:00,
2013-08-13 05:15:00,65.9,56.2,29.97,NW,321,5.0,8.0,71,0.00,,,0.00,VWS V14.01,2013-08-13 11:15:00,
2013-08-13 05:17:00,61.1,56.2,30.02,WNW,300,2.0,6.0,84,0.04,,,0.04,VWS V14.01,2013-08-13 11:17:00,
2013-08-13 05:20:00,65.6,56.0,29.97,NNW,333,3.0,7.0,71,0.00,,,0.00,VWS V14.01,2013-08-13 11:20:00,
2013-08-13 05:22:00,60.8,55.9,30.02,NNW,344,3.0,4.0,84,0.04,,,0.04,VWS V14.01,2013-08-13 11:22:00,
2013-08-13 05:25:00,65.4,55.8,29.97,NNW,337,5.0,7.0,71,0.00,,,0.00,VWS V14.01,2013-08-13 11:25:00,
2013-08-13 05:27:00,60.7,55.8,30.02,North,10,1.0,4.0,84,0.04,,,0.04,VWS V14.01,2013-08-13 11:27:00,
2013-08-13 05:30:00,65.0,56.5,29.97,NNW,342,6.0,7.0,74,0.00,,,0.00,VWS V14.01,2013-08-13 11:30:00,
2013-08-13 05:32:00,60.4,55.9,30.02,NNW,344,0.0,0.0,85,0.04,,,0.04,VWS V14.01,2013-08-13 11:32:00,
2013-08-13 05:35:00,63.9,56.2,29.97,NNW,343,4.0,8.0,76,0.00,,,0.00,VWS V14.01,2013-08-13 11:35:00,
2013-08-13 05:37:00,60.3,55.8,30.02,West,270,2.0,2.0,85,0.04,,,0.04,VWS V14.01,2013-08-13 11:37:00,
2013-08-13 05:40:00,63.4,56.4,29.99,North,350,4.0,6.0,78,0.00,,,0.00,VWS V14.01,2013-08-13 11:40:00,
2013-08-13 05:42:00,60.1,55.6,30.02,West,274,2.0,2.0,85,0.04,,,0.04,VWS V14.01,2013-08-13 11:42:00,
2013-08-13 05:45:00,63.0,56.0,30.00,WNW,302,3.0,5.0,78,0.00,,,0.00,VWS V14.01,2013-08-13 11:45:00,
2013-08-13 05:47:00,60.0,55.8,30.02,WNW,294,3.0,3.0,86,0.04,,,0.04,VWS V14.01,2013-08-13 11:47:00,
2013-08-13 05:50:00,62.9,56.3,30.01,NW,314,4.0,6.0,79,0.00,,,0.00,VWS V14.01,2013-08-13 11:50:00,
2013-08-13 05:52:00,60.0,55.8,30.01,WNW,290,2.0,3.0,86,0.04,,,0.04,VWS V14.01,2013-08-13 11:52:00,
2013-08-13 05:55:00,62.6,56.3,30.00,NW,325,3.0,8.0,80,0.01,,,0.01,VWS V14.01,2013-08-13 11:55:00,
2013-08-13 05:57:00,59.8,55.9,30.01,WNW,288,2.0,3.0,87,0.03,,,0.04,VWS V14.01,2013-08-13 11:57:00,
2013-08-13 06:00:00,62.1,56.2,30.01,NW,312,9.0,10.0,81,0.03,,,0.03,VWS V14.01,2013-08-13 12:00:00,
2013-08-13 06:02:00,59.9,56.3,30.01,West,274,3.0,4.0,88,0.01,,,0.04,VWS V14.01,2013-08-13 12:02:00,
2013-08-13 06:05:00,61.7,55.8,30.00,NNW,348,9.0,16.0,81,0.04,,,0.04,VWS V14.01,2013-08-13 12:05:00,
2013-08-13 06:07:00,59.6,55.7,30.01,West,266,6.0,6.0,87,0.00,,,0.04,VWS V14.01,2013-08-13 12:07:00,
2013-08-13 06:10:00,61.4,56.2,30.01,NW,316,6.0,10.0,83,0.04,,,0.04,VWS V14.01,2013-08-13 12:10:00,
2013-08-13 06:12:00,59.4,55.5,30.00,West,271,3.0,5.0,87,0.00,,,0.04,VWS V14.01,2013-08-13 12:12:00,
2013-08-13 06:15:00,61.1,56.2,30.02,WNW,302,2.0,7.0,84,0.04,,,0.04,VWS V14.01,2013-08-13 12:15:00,
2013-08-13 06:17:00,59.6,55.4,30.00,WNW,284,6.0,6.0,86,0.00,,,0.04,VWS V14.01,2013-08-13 12:17:00,
2013-08-13 06:20:00,60.9,56.4,30.02,NW,304,4.0,6.0,85,0.04,,,0.04,VWS V14.01,2013-08-13 12:20:00,
2013-08-13 06:22:00,59.6,55.1,30.00,West,260,3.0,5.0,85,0.00,,,0.04,VWS V14.01,2013-08-13 12:22:00,
2013-08-13 06:25:00,60.8,55.9,30.02,NNE,12,2.0,4.0,84,0.04,,,0.04,VWS V14.01,2013-08-13 12:25:00,
2013-08-13 06:27:00,59.3,55.1,30.00,WSW,257,4.0,5.0,86,0.00,,,0.04,VWS V14.01,2013-08-13 12:27:00,
2013-08-13 06:30:00,60.5,56.0,30.02,NNW,345,0.0,4.0,85,0.04,,,0.04,VWS V14.01,2013-08-13 12:30:00,
2013-08-13 06:32:00,59.3,55.1,30.00,West,263,4.0,5.0,86,0.00,,,0.04,VWS V14.01,2013-08-13 12:32:00,
2013-08-13 06:35:00,60.3,55.8,30.02,West,260,2.0,3.0,85,0.04,,,0.04,VWS V14.01,2013-08-13 12:35:00,
2013-08-13 06:37:00,59.1,54.9,30.00,West,274,4.0,6.0,86,0.00,,,0.04,VWS V14.01,2013-08-13 12:37:00,
2013-08-13 06:40:00,60.1,55.6,30.02,West,274,0.0,2.0,85,0.04,,,0.04,VWS V14.01,2013-08-13 12:40:00,
2013-08-13 06:42:00,59.1,54.9,30.01,WNW,295,3.0,5.0,86,0.00,,,0.04,VWS V14.01,2013-08-13 12:42:00,
2013-08-13 06:45:00,60.0,55.8,30.02,WNW,288,3.0,3.0,86,0.04,,,0.04,VWS V14.01,2013-08-13 12:45:00,
2013-08-13 06:47:00,59.3,54.5,30.01,WNW,300,5.0,7.0,84,0.00,,,0.04,VWS V14.01,2013-08-13 12:47:00,
2013-08-13 06:50:00,60.0,55.8,30.02,WNW,290,2.0,3.0,86,0.04,,,0.04,VWS V14.01,2013-08-13 12:50:00,
2013-08-13 06:52:00,59.5,54.7,30.01,NW,305,5.0,6.0,84,0.00,,,0.04,VWS V14.01,2013-08-13 12:52:00,
2013-08-13 06:55:00,59.9,55.7,30.01,West,280,2.0,3.0,86,0.04,,,0.04,VWS V14.01,2013-08-13 12:55:00,
2013-08-13 06:57:00,59.4,54.6,30.01,WNW,296,3.0,6.0,84,0.00,,,0.04,VWS V14.01,2013-08-13 12:57:00,
2013-08-13 07:00:00,59.9,56.0,30.01,WNW,283,2.0,5.0,87,0.03,,,0.04,VWS V14.01,2013-08-13 13:00:00,
2013-08-13 07:02:00,59.3,54.8,30.01,West,275,1.0,6.0,85,0.00,,,0.04,VWS V14.01,2013-08-13 13:02:00,
2013-08-13 07:05:00,59.7,56.2,30.01,West,264,4.0,4.0,88,0.01,,,0.04,VWS V14.01,2013-08-13 13:05:00,
2013-08-13 07:07:00,59.3,55.1,30.02,WSW,248,5.0,10.0,86,0.00,,,0.04,VWS V14.01,2013-08-13 13:07:00,
2013-08-13 07:10:00,59.5,55.6,30.01,West,281,4.0,6.0,87,0.00,,,0.04,VWS V14.01,2013-08-13 13:10:00,
2013-08-13 07:12:00,59.3,55.1,30.02,WNW,300,4.0,5.0,86,0.00,,,0.04,VWS V14.01,2013-08-13 13:12:00,
2013-08-13 07:15:00,59.5,55.3,30.00,West,275,5.0,5.0,86,0.00,,,0.04,VWS V14.01,2013-08-13 13:15:00,
2013-08-13 07:17:00,59.4,55.2,30.02,WNW,300,4.0,8.0,86,0.00,,,0.04,VWS V14.01,2013-08-13 13:17:00,
2013-08-13 07:20:00,59.6,55.4,30.00,West,270,3.0,6.0,86,0.00,,,0.04,VWS V14.01,2013-08-13 13:20:00,
2013-08-13 07:22:00,59.5,55.3,30.02,NW,307,3.0,7.0,86,0.00,,,0.04,VWS V14.01,2013-08-13 13:22:00,
2013-08-13 07:25:00,59.4,55.2,30.00,WNW,287,3.0,5.0,86,0.00,,,0.04,VWS V14.01,2013-08-13 13:25:00,
2013-08-13 07:27:00,59.5,55.3,30.02,West,260,4.0,7.0,86,0.00,,,0.04,VWS V14.01,2013-08-13 13:27:00,
2013-08-13 07:30:00,59.4,55.2,30.00,WNW,289,2.0,6.0,86,0.00,,,0.04,VWS V14.01,2013-08-13 13:30:00,
2013-08-13 07:32:00,59.7,55.2,30.02,WNW,293,3.0,5.0,85,0.00,,,0.04,VWS V14.01,2013-08-13 13:32:00,
2013-08-13 07:35:00,59.1,54.9,30.00,West,280,3.0,6.0,86,0.00,,,0.04,VWS V14.01,2013-08-13 13:35:00,
2013-08-13 07:37:00,59.8,55.3,30.01,West,267,2.0,7.0,85,0.00,,,0.04,VWS V14.01,2013-08-13 13:37:00,
2013-08-13 07:40:00,59.1,54.9,30.01,West,259,2.0,6.0,86,0.00,,,0.04,VWS V14.01,2013-08-13 13:40:00,
2013-08-13 07:42:00,60.0,55.2,30.01,West,268,8.0,8.0,84,0.00,,,0.04,VWS V14.01,2013-08-13 13:42:00,
2013-08-13 07:45:00,59.2,54.7,30.01,WNW,297,6.0,6.0,85,0.00,,,0.04,VWS V14.01,2013-08-13 13:45:00,
2013-08-13 07:47:00,60.1,54.9,30.01,WNW,290,3.0,8.0,83,0.00,,,0.04,VWS V14.01,2013-08-13 13:47:00,
2013-08-13 07:50:00,59.5,54.7,30.01,WNW,296,4.0,7.0,84,0.00,,,0.04,VWS V14.01,2013-08-13 13:50:00,
2013-08-13 07:52:00,60.3,55.1,30.01,WNW,300,3.0,7.0,83,0.00,,,0.04,VWS V14.01,2013-08-13 13:52:00,
2013-08-13 07:55:00,59.5,54.7,30.01,NW,315,2.0,6.0,84,0.00,,,0.04,VWS V14.01,2013-08-13 13:55:00,
2013-08-13 07:57:00,60.4,55.2,30.01,WNW,295,4.0,7.0,83,0.00,,,0.04,VWS V14.01,2013-08-13 13:57:00,
2013-08-13 08:00:00,59.3,54.8,30.01,WNW,302,2.0,6.0,85,0.00,,,0.04,VWS V14.01,2013-08-13 14:00:00,
2013-08-13 08:02:00,60.7,54.8,30.01,West,277,4.0,10.0,81,0.00,,,0.04,VWS V14.01,2013-08-13 14:02:00,
2013-08-13 08:05:00,59.3,54.8,30.01,NW,307,3.0,6.0,85,0.00,,,0.04,VWS V14.01,2013-08-13 14:05:00,
2013-08-13 08:07:00,61.0,55.1,30.01,NW,309,7.0,7.0,81,0.00,,,0.04,VWS V14.01,2013-08-13 14:07:00,
2013-08-13 08:10:00,59.3,55.1,30.02,WNW,293,3.0,10.0,86,0.00,,,0.04,VWS V14.01,2013-08-13 14:10:00,
2013-08-13 08:12:00,61.3,55.1,30.01,WNW,293,6.0,8.0,80,0.00,,,0.04,VWS V14.01,2013-08-13 14:12:00,
2013-08-13 08:15:00,59.3,55.1,30.02,WNW,284,5.0,7.0,86,0.00,,,0.04,VWS V14.01,2013-08-13 14:15:00,
2013-08-13 08:17:00,61.6,54.7,30.01,WNW,289,5.0,7.0,78,0.00,,,0.04,VWS V14.01,2013-08-13 14:17:00,
2013-08-13 08:20:00,59.4,55.2,30.02,WNW,291,6.0,8.0,86,0.00,,,0.04,VWS V14.01,2013-08-13 14:20:00,
2013-08-13 08:22:00,61.8,54.9,30.00,WNW,291,4.0,5.0,78,0.00,,,0.04,VWS V14.01,2013-08-13 14:22:00,
2013-08-13 08:25:00,59.5,55.3,30.02,NW,309,3.0,7.0,86,0.00,,,0.04,VWS V14.01,2013-08-13 14:25:00,
2013-08-13 08:27:00,62.1,55.2,30.00,WNW,294,2.0,4.0,78,0.00,,,0.04,VWS V14.01,2013-08-13 14:27:00,
2013-08-13 08:30:00,59.6,55.1,30.02,NW,307,3.0,7.0,85,0.00,,,0.04,VWS V14.01,2013-08-13 14:30:00,
2013-08-13 08:32:00,62.6,55.3,30.00,West,278,2.0,3.0,77,0.00,,,0.04,VWS V14.01,2013-08-13 14:32:00,
2013-08-13 08:35:00,59.7,55.2,30.02,WNW,295,4.0,7.0,85,0.00,,,0.04,VWS V14.01,2013-08-13 14:35:00,
2013-08-13 08:37:00,62.9,55.6,30.00,West,267,3.0,3.0,77,0.00,,,0.04,VWS V14.01,2013-08-13 14:37:00,
2013-08-13 08:40:00,59.9,55.1,30.02,WNW,291,7.0,8.0,84,0.00,,,0.04,VWS V14.01,2013-08-13 14:40:00,
2013-08-13 08:42:00,63.1,56.5,30.00,WSW,253,3.0,3.0,79,0.00,,,0.04,VWS V14.01,2013-08-13 14:42:00,
2013-08-13 08:45:00,60.1,55.3,30.01,WNW,302,2.0,8.0,84,0.00,,,0.04,VWS V14.01,2013-08-13 14:45:00,
2013-08-13 08:47:00,63.3,55.6,30.00,NW,304,2.0,3.0,76,0.00,,,0.04,VWS V14.01,2013-08-13 14:47:00,
2013-08-13 08:50:00,60.2,55.0,30.01,WNW,297,4.0,8.0,83,0.00,,,0.04,VWS V14.01,2013-08-13 14:50:00,
2013-08-13 08:52:00,64.1,55.3,30.00,NW,319,2.0,5.0,73,0.00,,,0.04,VWS V14.01,2013-08-13 14:52:00,
2013-08-13 08:55:00,60.3,55.1,30.01,West,276,6.0,7.0,83,0.00,,,0.04,VWS V14.01,2013-08-13 14:55:00,
2013-08-13 08:57:00,64.7,55.9,30.00,WSW,253,1.0,2.0,73,0.00,,,0.04,VWS V14.01,2013-08-13 14:57:00,
2013-08-13 09:00:00,60.6,55.1,30.01,WSW,250,4.0,7.0,82,0.00,,,0.04,VWS V14.01,2013-08-13 15:00:00,
2013-08-13 09:02:00,65.7,55.3,30.01,West,259,1.0,3.0,69,0.00,,,0.04,VWS V14.01,2013-08-13 15:02:00,
2013-08-13 09:05:00,60.9,55.0,30.01,WNW,285,3.0,10.0,81,0.00,,,0.04,VWS V14.01,2013-08-13 15:05:00,
2013-08-13 09:07:00,66.3,54.6,30.01,NW,310,3.0,5.0,66,0.00,,,0.04,VWS V14.01,2013-08-13 15:07:00,
2013-08-13 09:10:00,61.1,54.9,30.01,West,267,4.0,8.0,80,0.00,,,0.04,VWS V14.01,2013-08-13 15:10:00,
2013-08-13 09:12:00,66.7,55.0,30.00,WNW,298,5.0,6.0,66,0.00,,,0.04,VWS V14.01,2013-08-13 15:12:00,
2013-08-13 09:15:00,61.4,54.8,30.01,WNW,302,6.0,8.0,79,0.00,,,0.04,VWS V14.01,2013-08-13 15:15:00,
2013-08-13 09:17:00,67.0,55.3,30.00,NW,305,2.0,3.0,66,0.00,,,0.04,VWS V14.01,2013-08-13 15:17:00,
2013-08-13 09:20:00,61.7,54.8,30.01,WNW,284,1.0,7.0,78,0.00,,,0.04,VWS V14.01,2013-08-13 15:20:00,
2013-08-13 09:22:00,67.3,55.2,30.00,NW,317,4.0,6.0,65,0.00,,,0.04,VWS V14.01,2013-08-13 15:22:00,
2013-08-13 09:25:00,62.0,55.1,30.00,WNW,297,3.0,5.0,78,0.00,,,0.04,VWS V14.01,2013-08-13 15:25:00,
2013-08-13 09:27:00,67.7,55.5,30.00,NNW,328,4.0,6.0,65,0.00,,,0.04,VWS V14.01,2013-08-13 15:27:00,
2013-08-13 09:30:00,62.4,55.5,30.00,WNW,286,2.0,4.0,78,0.00,,,0.04,VWS V14.01,2013-08-13 15:30:00,
2013-08-13 09:32:00,67.8,54.8,30.00,NNW,335,7.0,7.0,63,0.00,,,0.04,VWS V14.01,2013-08-13 15:32:00,
2013-08-13 09:35:00,62.8,55.1,30.00,West,273,2.0,3.0,76,0.00,,,0.04,VWS V14.01,2013-08-13 15:35:00,
2013-08-13 09:37:00,68.0,55.0,30.00,NNW,335,5.0,7.0,63,0.00,,,0.04,VWS V14.01,2013-08-13 15:37:00,
2013-08-13 09:40:00,63.0,55.3,30.00,West,271,2.0,3.0,76,0.00,,,0.04,VWS V14.01,2013-08-13 15:40:00,
2013-08-13 09:42:00,68.0,54.5,30.00,NNW,330,6.0,7.0,62,0.00,,,0.04,VWS V14.01,2013-08-13 15:42:00,
2013-08-13 09:45:00,63.1,55.8,30.00,WNW,291,3.0,3.0,77,0.00,,,0.04,VWS V14.01,2013-08-13 15:45:00,
2013-08-13 09:47:00,67.9,54.8,30.00,NNW,348,3.0,6.0,63,0.00,,,0.04,VWS V14.01,2013-08-13 15:47:00,
2013-08-13 09:50:00,63.8,56.1,30.00,NNW,331,5.0,5.0,76,0.00,,,0.04,VWS V14.01,2013-08-13 15:50:00,
2013-08-13 09:52:00,68.1,55.0,30.00,NW,316,2.0,6.0,63,0.00,,,0.04,VWS V14.01,2013-08-13 15:52:00,
2013-08-13 09:55:00,64.4,55.2,30.00,NW,321,2.0,5.0,72,0.00,,,0.04,VWS V14.01,2013-08-13 15:55:00,
2013-08-13 09:57:00,68.1,55.0,30.00,WNW,293,3.0,4.0,63,0.00,,,0.04,VWS V14.01,2013-08-13 15:57:00,
2013-08-13 10:00:00,65.3,55.3,30.00,NW,323,2.0,4.0,70,0.00,,,0.04,VWS V14.01,2013-08-13 16:00:00,
2013-08-13 10:02:00,68.3,55.2,30.00,NNW,348,7.0,7.0,63,0.00,,,0.04,VWS V14.01,2013-08-13 16:02:00,
2013-08-13 10:05:00,66.2,55.7,30.01,NW,319,4.0,5.0,69,0.00,,,0.04,VWS V14.01,2013-08-13 16:05:00,
2013-08-13 10:07:00,68.1,55.5,30.00,North,352,6.0,7.0,64,0.00,,,0.04,VWS V14.01,2013-08-13 16:07:00,
2013-08-13 10:10:00,66.6,55.3,30.00,WNW,285,4.0,5.0,67,0.00,,,0.04,VWS V14.01,2013-08-13 16:10:00,
2013-08-13 10:12:00,68.3,56.5,30.00,NNW,339,4.0,7.0,66,0.00,,,0.04,VWS V14.01,2013-08-13 16:12:00,
2013-08-13 10:15:00,66.9,54.8,30.00,NNW,328,3.0,6.0,65,0.00,,,0.04,VWS V14.01,2013-08-13 16:15:00,
2013-08-13 10:17:00,68.5,56.3,30.00,NNW,328,6.0,10.0,65,0.00,,,0.04,VWS V14.01,2013-08-13 16:17:00,
2013-08-13 10:20:00,67.2,54.6,30.01,NW,312,4.0,6.0,64,0.00,,,0.04,VWS V14.01,2013-08-13 16:20:00,
2013-08-13 10:22:00,68.5,55.9,30.00,NNW,344,7.0,12.0,64,0.00,,,0.04,VWS V14.01,2013-08-13 16:22:00,
2013-08-13 10:25:00,67.6,55.8,30.01,NNW,328,5.0,6.0,66,0.00,,,0.04,VWS V14.01,2013-08-13 16:25:00,
2013-08-13 10:27:00,68.6,56.0,30.00,NNW,342,4.0,10.0,64,0.00,,,0.04,VWS V14.01,2013-08-13 16:27:00,
2013-08-13 10:30:00,67.8,54.8,30.00,NW,318,6.0,7.0,63,0.00,,,0.04,VWS V14.01,2013-08-13 16:30:00,
2013-08-13 10:32:00,68.9,56.2,30.00,NE,39,9.0,11.0,64,0.00,,,0.04,VWS V14.01,2013-08-13 16:32:00,
2013-08-13 10:35:00,67.9,54.4,30.00,NNW,328,3.0,7.0,62,0.00,,,0.04,VWS V14.01,2013-08-13 16:35:00,
2013-08-13 10:37:00,69.0,55.9,30.00,North,11,11.0,12.0,63,0.00,,,0.04,VWS V14.01,2013-08-13 16:37:00,
2013-08-13 10:40:00,67.9,55.3,30.00,NW,314,4.0,7.0,64,0.00,,,0.04,VWS V14.01,2013-08-13 16:40:00,
2013-08-13 10:42:00,69.0,56.3,30.00,NNE,14,5.0,11.0,64,0.00,,,0.04,VWS V14.01,2013-08-13 16:42:00,
2013-08-13 10:45:00,67.8,54.8,30.00,NNW,342,4.0,7.0,63,0.00,,,0.04,VWS V14.01,2013-08-13 16:45:00,
2013-08-13 10:47:00,69.4,56.3,30.00,North,9,6.0,11.0,63,0.00,,,0.04,VWS V14.01,2013-08-13 16:47:00,
2013-08-13 10:50:00,68.1,54.6,30.00,NNW,336,3.0,6.0,62,0.00,,,0.04,VWS V14.01,2013-08-13 16:50:00,
2013-08-13 10:52:00,69.8,56.2,30.00,North,10,4.0,8.0,62,0.00,,,0.04,VWS V14.01,2013-08-13 16:52:00,
2013-08-13 10:55:00,68.2,54.7,30.00,WNW,303,2.0,6.0,62,0.00,,,0.04,VWS V14.01,2013-08-13 16:55:00,
2013-08-13 10:57:00,70.6,57.0,30.00,NNW,346,5.0,8.0,62,0.00,,,0.04,VWS V14.01,2013-08-13 16:57:00,
2013-08-13 11:00:00,68.3,54.8,30.00,NNW,335,6.0,6.0,62,0.00,,,0.04,VWS V14.01,2013-08-13 17:00:00,
2013-08-13 11:02:00,71.0,57.8,30.00,NNW,342,4.0,8.0,63,0.00,,,0.04,VWS V14.01,2013-08-13 17:02:00,
2013-08-13 11:05:00,68.1,55.0,30.00,NNW,339,4.0,7.0,63,0.00,,,0.04,VWS V14.01,2013-08-13 17:05:00,
2013-08-13 11:07:00,71.4,57.3,30.00,WNW,299,5.0,5.0,61,0.00,,,0.04,VWS V14.01,2013-08-13 17:07:00,
2013-08-13 11:10:00,68.1,55.0,30.00,NNE,18,6.0,7.0,63,0.00,,,0.04,VWS V14.01,2013-08-13 17:10:00,
2013-08-13 11:12:00,71.6,56.5,30.00,NW,325,4.0,11.0,59,0.00,,,0.04,VWS V14.01,2013-08-13 17:12:00,
2013-08-13 11:15:00,68.5,57.1,30.00,NNW,342,9.0,9.0,67,0.00,,,0.04,VWS V14.01,2013-08-13 17:15:00,
2013-08-13 11:18:00,71.9,56.3,30.00,NNE,28,6.0,9.0,58,0.00,,,0.04,VWS V14.01,2013-08-13 17:18:00,
2013-08-13 11:20:00,68.6,56.8,30.00,NNW,348,8.0,10.0,66,0.00,,,0.04,VWS V14.01,2013-08-13 17:20:00,
2013-08-13 11:23:00,72.3,57.2,30.00,NNW,348,6.0,9.0,59,0.00,,,0.04,VWS V14.01,2013-08-13 17:23:00,
2013-08-13 11:25:00,68.5,55.9,30.00,North,350,4.0,12.0,64,0.00,,,0.04,VWS V14.01,2013-08-13 17:25:00,
2013-08-13 11:28:00,72.6,57.5,30.00,NNE,20,8.0,9.0,59,0.00,,,0.04,VWS V14.01,2013-08-13 17:28:00,
2013-08-13 11:30:00,68.9,56.7,30.00,NNW,336,7.0,10.0,65,0.00,,,0.04,VWS V14.01,2013-08-13 17:30:00,
2013-08-13 11:33:00,72.6,57.5,30.00,NW,321,5.0,8.0,59,0.00,,,0.04,VWS V14.01,2013-08-13 17:33:00,
2013-08-13 11:35:00,69.0,56.3,30.00,NNE,15,9.0,11.0,64,0.00,,,0.04,VWS V14.01,2013-08-13 17:35:00,
2013-08-13 11:38:00,72.9,56.8,30.00,North,359,5.0,9.0,57,0.00,,,0.04,VWS V14.01,2013-08-13 17:38:00,
2013-08-13 11:40:00,69.0,55.5,30.00,North,356,4.0,12.0,62,0.00,,,0.04,VWS V14.01,2013-08-13 17:40:00,
2013-08-13 11:43:00,73.2,57.1,30.00,NNE,20,9.0,10.0,57,0.00,,,0.04,VWS V14.01,2013-08-13 17:43:00,
2013-08-13 11:45:00,69.2,56.1,30.00,NW,315,5.0,11.0,63,0.00,,,0.04,VWS V14.01,2013-08-13 17:45:00,
2013-08-13 11:48:00,72.8,56.7,30.00,North,357,6.0,8.0,57,0.00,,,0.04,VWS V14.01,2013-08-13 17:48:00,
2013-08-13 11:50:00,69.7,56.6,30.00,NNE,17,8.0,11.0,63,0.00,,,0.04,VWS V14.01,2013-08-13 17:50:00,
2013-08-13 11:53:00,73.1,57.0,30.00,NNE,23,6.0,8.0,57,0.00,,,0.04,VWS V14.01,2013-08-13 17:53:00,
2013-08-13 11:55:00,70.3,57.6,30.00,North,354,4.0,8.0,64,0.00,,,0.04,VWS V14.01,2013-08-13 17:55:00,
2013-08-13 11:58:00,73.3,57.7,30.00,East,84,1.0,5.0,58,0.00,,,0.04,VWS V14.01,2013-08-13 17:58:00,
2013-08-13 12:00:00,70.8,56.7,30.00,NW,311,4.0,8.0,61,0.00,,,0.04,VWS V14.01,2013-08-13 18:00:00,
2013-08-13 12:03:00,73.4,58.2,30.00,NE,39,4.0,9.0,59,0.00,,,0.04,VWS V14.01,2013-08-13 18:03:00,
2013-08-13 12:05:00,71.1,57.4,30.00,North,351,4.0,8.0,62,0.00,,,0.04,VWS V14.01,2013-08-13 18:05:00,
2013-08-13 12:08:00,73.8,56.6,30.00,NE,53,6.0,6.0,55,0.00,,,0.04,VWS V14.01,2013-08-13 18:08:00,
2013-08-13 12:10:00,71.5,57.4,30.01,WNW,295,4.0,9.0,61,0.00,,,0.04,VWS V14.01,2013-08-13 18:10:00,
2013-08-13 12:13:00,73.8,57.6,29.99,NNE,23,6.0,6.0,57,0.00,,,0.04,VWS V14.01,2013-08-13 18:13:00,
2013-08-13 12:15:00,71.8,56.7,30.00,NNE,15,8.0,11.0,59,0.00,,,0.04,VWS V14.01,2013-08-13 18:15:00,
2013-08-13 12:18:00,74.1,56.4,29.99,NE,53,0.0,3.0,54,0.00,,,0.04,VWS V14.01,2013-08-13 18:18:00,
2013-08-13 12:20:00,72.0,56.9,30.00,North,4,5.0,10.0,59,0.00,,,0.04,VWS V14.01,2013-08-13 18:20:00,
2013-08-13 12:23:00,74.8,56.0,29.99,SSE,160,2.0,3.0,52,0.00,,,0.04,VWS V14.01,2013-08-13 18:23:00,
2013-08-13 12:25:00,72.6,56.5,30.00,NNE,28,5.0,9.0,57,0.00,,,0.04,VWS V14.01,2013-08-13 18:25:00,
2013-08-13 12:28:00,75.7,56.3,29.99,NE,35,4.0,5.0,51,0.00,,,0.04,VWS V14.01,2013-08-13 18:28:00,
2013-08-13 12:30:00,72.4,56.3,30.00,NW,321,4.0,10.0,57,0.00,,,0.04,VWS V14.01,2013-08-13 18:30:00,
2013-08-13 12:33:00,75.9,56.0,29.99,SSE,162,3.0,6.0,50,0.00,,,0.04,VWS V14.01,2013-08-13 18:33:00,
2013-08-13 12:35:00,72.8,57.2,30.00,North,349,5.0,9.0,58,0.00,,,0.04,VWS V14.01,2013-08-13 18:35:00,
2013-08-13 12:38:00,76.5,56.5,29.99,East,82,5.0,5.0,50,0.00,,,0.04,VWS V14.01,2013-08-13 18:38:00,
2013-08-13 12:40:00,73.0,57.4,30.00,NNE,26,4.0,9.0,58,0.00,,,0.04,VWS V14.01,2013-08-13 18:40:00,
2013-08-13 12:43:00,76.3,56.3,29.99,ENE,62,4.0,7.0,50,0.00,,,0.04,VWS V14.01,2013-08-13 18:43:00,
2013-08-13 12:45:00,72.9,55.8,30.00,NNE,25,4.0,10.0,55,0.00,,,0.04,VWS V14.01,2013-08-13 18:45:00,
2013-08-13 12:48:00,76.0,55.5,29.98,NNE,30,4.0,7.0,49,0.00,,,0.04,VWS V14.01,2013-08-13 18:48:00,
2013-08-13 12:50:00,72.8,56.7,30.00,NNW,345,4.0,8.0,57,0.00,,,0.04,VWS V14.01,2013-08-13 18:50:00,
2013-08-13 12:53:00,76.1,55.6,29.98,SSE,148,4.0,7.0,49,0.00,,,0.04,VWS V14.01,2013-08-13 18:53:00,
2013-08-13 12:55:00,73.0,56.9,30.00,NNE,33,0.0,8.0,57,0.00,,,0.04,VWS V14.01,2013-08-13 18:55:00,
2013-08-13 12:58:00,76.5,55.4,29.98,ESE,103,5.0,6.0,48,0.00,,,0.04,VWS V14.01,2013-08-13 18:58:00,
2013-08-13 13:00:00,73.5,57.8,30.00,NNE,32,9.0,9.0,58,0.00,,,0.04,VWS V14.01,2013-08-13 19:00:00,
2013-08-13 13:03:00,76.8,55.7,29.98,ENE,64,4.0,6.0,48,0.00,,,0.04,VWS V14.01,2013-08-13 19:03:00,
2013-08-13 13:05:00,73.6,57.9,30.00,NNE,21,2.0,9.0,58,0.00,,,0.04,VWS V14.01,2013-08-13 19:05:00,
2013-08-13 13:08:00,77.0,55.2,29.97,NNW,342,5.0,6.0,47,0.00,,,0.04,VWS V14.01,2013-08-13 19:08:00,
2013-08-13 13:10:00,73.8,57.1,29.99,NE,48,5.0,6.0,56,0.00,,,0.04,VWS V14.01,2013-08-13 19:10:00,
2013-08-13 13:13:00,77.0,55.2,29.97,NW,317,4.0,6.0,47,0.00,,,0.04,VWS V14.01,2013-08-13 19:13:00,
2013-08-13 13:15:00,73.9,56.2,29.99,NNE,13,3.0,7.0,54,0.00,,,0.04,VWS V14.01,2013-08-13 19:15:00,
2013-08-13 13:18:00,77.4,55.6,29.97,NNE,13,3.0,8.0,47,0.00,,,0.04,VWS V14.01,2013-08-13 19:18:00,
2013-08-13 13:20:00,74.4,55.7,29.99,ENE,72,2.0,3.0,52,0.00,,,0.04,VWS V14.01,2013-08-13 19:20:00,
2013-08-13 13:23:00,77.8,56.0,29.97,WNW,292,3.0,5.0,47,0.00,,,0.04,VWS V14.01,2013-08-13 19:23:00,
2013-08-13 13:25:00,75.1,55.8,29.99,SSW,208,2.0,3.0,51,0.00,,,0.04,VWS V14.01,2013-08-13 19:25:00,
2013-08-13 13:28:00,77.9,55.5,29.97,NNE,12,3.0,5.0,46,0.00,,,0.04,VWS V14.01,2013-08-13 19:28:00,
2013-08-13 13:30:00,75.8,55.8,29.99,ESE,109,6.0,7.0,50,0.00,,,0.04,VWS V14.01,2013-08-13 19:30:00,
2013-08-13 13:33:00,77.9,54.9,29.97,North,353,1.0,7.0,45,0.00,,,0.04,VWS V14.01,2013-08-13 19:33:00,
2013-08-13 13:35:00,76.1,56.1,29.99,SE,138,1.0,6.0,50,0.00,,,0.04,VWS V14.01,2013-08-13 19:35:00,
2013-08-13 13:38:00,77.9,54.9,29.97,NW,324,4.0,7.0,45,0.00,,,0.04,VWS V14.01,2013-08-13 19:38:00,
2013-08-13 13:40:00,76.4,55.8,29.99,ENE,57,0.0,5.0,49,0.00,,,0.04,VWS V14.01,2013-08-13 19:40:00,
2013-08-13 13:43:00,78.0,55.0,29.97,ESE,113,2.0,8.0,45,0.00,,,0.04,VWS V14.01,2013-08-13 19:43:00,
2013-08-13 13:45:00,76.2,55.7,29.98,ENE,63,6.0,7.0,49,0.00,,,0.04,VWS V14.01,2013-08-13 19:45:00,
2013-08-13 13:48:00,78.5,56.0,29.97,ENE,62,3.0,7.0,46,0.00,,,0.04,VWS V14.01,2013-08-13 19:48:00,
2013-08-13 13:50:00,76.2,55.1,29.98,ENE,57,7.0,7.0,48,0.00,,,0.04,VWS V14.01,2013-08-13 19:50:00,
2013-08-13 13:53:00,78.6,54.9,29.96,NE,39,1.0,7.0,44,0.00,,,0.04,VWS V14.01,2013-08-13 19:53:00,
2013-08-13 13:55:00,76.3,55.8,29.98,ESE,107,5.0,7.0,49,0.00,,,0.04,VWS V14.01,2013-08-13 19:55:00,
2013-08-13 13:58:00,78.7,54.3,29.96,West,274,1.0,6.0,43,0.00,,,0.04,VWS V14.01,2013-08-13 19:58:00,
2013-08-13 14:00:00,76.6,54.9,29.98,ENE,66,4.0,6.0,47,0.00,,,0.04,VWS V14.01,2013-08-13 20:00:00,
2013-08-13 14:03:00,78.9,55.8,29.96,WNW,298,4.0,5.0,45,0.00,,,0.04,VWS V14.01,2013-08-13 20:03:00,
2013-08-13 14:05:00,76.7,55.0,29.98,NE,43,2.0,6.0,47,0.00,,,0.04,VWS V14.01,2013-08-13 20:05:00,
2013-08-13 14:08:00,79.6,55.2,29.96,NW,309,2.0,6.0,43,0.00,,,0.04,VWS V14.01,2013-08-13 20:08:00,
2013-08-13 14:10:00,76.9,55.2,29.97,SSW,205,0.0,6.0,47,0.00,,,0.04,VWS V14.01,2013-08-13 20:10:00,
2013-08-13 14:13:00,80.2,55.7,29.96,WNW,283,0.0,4.0,43,0.00,,,0.04,VWS V14.01,2013-08-13 20:13:00,
2013-08-13 14:15:00,76.9,55.7,29.97,NNW,335,4.0,7.0,48,0.00,,,0.04,VWS V14.01,2013-08-13 20:15:00,
2013-08-13 14:18:00,80.6,54.8,29.96,ENE,58,0.0,6.0,41,0.00,,,0.04,VWS V14.01,2013-08-13 20:18:00,
2013-08-13 14:20:00,77.5,55.7,29.97,NW,322,3.0,9.0,47,0.00,,,0.04,VWS V14.01,2013-08-13 20:20:00,
2013-08-13 14:23:00,80.5,55.3,29.96,NE,39,1.0,4.0,42,0.00,,,0.04,VWS V14.01,2013-08-13 20:23:00,
2013-08-13 14:25:00,77.9,55.5,29.97,NW,313,5.0,5.0,46,0.00,,,0.04,VWS V14.01,2013-08-13 20:25:00,
2013-08-13 14:28:00,81.4,56.1,29.96,SE,124,2.0,4.0,42,0.00,,,0.04,VWS V14.01,2013-08-13 20:28:00,
2013-08-13 14:30:00,78.0,55.0,29.97,NNE,19,5.0,7.0,45,0.00,,,0.04,VWS V14.01,2013-08-13 20:30:00,
2013-08-13 14:33:00,80.8,55.6,29.96,ENE,65,3.0,6.0,42,0.00,,,0.04,VWS V14.01,2013-08-13 20:33:00,
2013-08-13 14:35:00,77.8,54.8,29.97,NNE,28,4.0,7.0,45,0.00,,,0.04,VWS V14.01,2013-08-13 20:35:00,
2013-08-13 14:38:00,79.8,56.0,29.96,South,188,2.0,4.0,44,0.00,,,0.04,VWS V14.01,2013-08-13 20:38:00,
2013-08-13 14:40:00,78.1,55.0,29.97,North,8,5.0,7.0,45,0.00,,,0.04,VWS V14.01,2013-08-13 20:40:00,
2013-08-13 14:43:00,79.2,55.4,29.96,SSE,159,2.0,3.0,44,0.00,,,0.04,VWS V14.01,2013-08-13 20:43:00,
2013-08-13 14:45:00,78.0,55.0,29.97,NNE,32,3.0,8.0,45,0.00,,,0.04,VWS V14.01,2013-08-13 20:45:00,
2013-08-13 14:48:00,78.9,55.8,29.96,ESE,117,1.0,3.0,45,0.00,,,0.04,VWS V14.01,2013-08-13 20:48:00,
2013-08-13 14:50:00,78.7,55.0,29.97,NNW,335,3.0,7.0,44,0.00,,,0.04,VWS V14.01,2013-08-13 20:50:00,
2013-08-13 14:53:00,78.5,56.6,29.96,ESE,104,1.0,3.0,47,0.00,,,0.04,VWS V14.01,2013-08-13 20:53:00,
2013-08-13 14:55:00,78.7,55.0,29.96,North,6,3.0,7.0,44,0.00,,,0.04,VWS V14.01,2013-08-13 20:55:00,
2013-08-13 14:58:00,78.2,56.3,29.96,ESE,113,2.0,3.0,47,0.00,,,0.04,VWS V14.01,2013-08-13 20:58:00,
2013-08-13 15:00:00,78.6,54.9,29.96,NE,50,5.0,7.0,44,0.00,,,0.04,VWS V14.01,2013-08-13 21:00:00,
2013-08-13 15:03:00,77.6,57.0,29.96,SE,124,7.0,7.0,49,0.00,,,0.04,VWS V14.01,2013-08-13 21:03:00,
2013-08-13 15:05:00,79.2,54.8,29.96,NNW,337,1.0,5.0,43,0.00,,,0.04,VWS V14.01,2013-08-13 21:05:00,
2013-08-13 15:08:00,77.0,56.4,29.96,SSW,208,1.0,6.0,49,0.00,,,0.04,VWS V14.01,2013-08-13 21:08:00,
2013-08-13 15:10:00,79.7,55.2,29.96,West,259,3.0,6.0,43,0.00,,,0.04,VWS V14.01,2013-08-13 21:10:00,
2013-08-13 15:13:00,76.8,56.2,29.96,SSW,204,4.0,8.0,49,0.00,,,0.04,VWS V14.01,2013-08-13 21:13:00,
2013-08-13 15:15:00,80.6,56.1,29.96,ENE,70,4.0,7.0,43,0.00,,,0.04,VWS V14.01,2013-08-13 21:15:00,
2013-08-13 15:18:00,76.6,56.0,29.95,SW,224,5.0,9.0,49,0.00,,,0.04,VWS V14.01,2013-08-13 21:18:00,
2013-08-13 15:20:00,80.5,55.3,29.96,NE,37,4.0,6.0,42,0.00,,,0.04,VWS V14.01,2013-08-13 21:20:00,
2013-08-13 15:23:00,76.6,56.6,29.96,SSW,200,3.0,7.0,50,0.00,,,0.04,VWS V14.01,2013-08-13 21:23:00,
2013-08-13 15:25:00,80.8,54.9,29.96,East,82,1.0,6.0,41,0.00,,,0.04,VWS V14.01,2013-08-13 21:25:00,
2013-08-13 15:28:00,77.1,57.0,29.95,SSW,203,1.0,8.0,50,0.00,,,0.04,VWS V14.01,2013-08-13 21:28:00,
2013-08-13 15:30:00,81.4,54.8,29.96,East,82,4.0,6.0,40,0.00,,,0.04,VWS V14.01,2013-08-13 21:30:00,
2013-08-13 15:33:00,77.6,56.4,29.95,SE,133,3.0,7.0,48,0.00,,,0.04,VWS V14.01,2013-08-13 21:33:00,
2013-08-13 15:35:00,80.4,55.9,29.96,SE,128,2.0,6.0,43,0.00,,,0.04,VWS V14.01,2013-08-13 21:35:00,
2013-08-13 15:39:00,77.9,56.7,29.95,SSE,155,3.0,7.0,48,0.00,,,0.04,VWS V14.01,2013-08-13 21:39:00,
2013-08-13 15:40:00,79.6,55.8,29.96,SSE,165,2.0,4.0,44,0.00,,,0.04,VWS V14.01,2013-08-13 21:40:00,
2013-08-13 15:44:00,78.3,57.6,29.95,SSW,210,3.0,7.0,49,0.00,,,0.04,VWS V14.01,2013-08-13 21:44:00,
2013-08-13 15:45:00,79.0,55.9,29.96,SE,142,2.0,3.0,45,0.00,,,0.04,VWS V14.01,2013-08-13 21:45:00,
2013-08-13 15:49:00,79.0,57.1,29.95,SW,215,3.0,5.0,47,0.00,,,0.04,VWS V14.01,2013-08-13 21:49:00,
2013-08-13 15:50:00,78.8,56.3,29.96,SSE,149,0.0,3.0,46,0.00,,,0.04,VWS V14.01,2013-08-13 21:50:00,
2013-08-13 15:54:00,80.1,57.5,29.94,SE,134,2.0,5.0,46,0.00,,,0.04,VWS V14.01,2013-08-13 21:54:00,
2013-08-13 15:55:00,78.4,56.5,29.96,ESE,121,3.0,3.0,47,0.00,,,0.04,VWS V14.01,2013-08-13 21:55:00,
2013-08-13 15:59:00,81.1,56.5,29.94,ESE,111,1.0,4.0,43,0.00,,,0.04,VWS V14.01,2013-08-13 21:59:00,
2013-08-13 16:00:00,78.1,56.2,29.96,South,188,7.0,7.0,47,0.00,,,0.04,VWS V14.01,2013-08-13 22:00:00,
2013-08-13 16:04:00,81.2,56.0,29.93,South,181,3.0,6.0,42,0.00,,,0.04,VWS V14.01,2013-08-13 22:04:00,
2013-08-13 16:05:00,77.4,56.8,29.96,SE,141,2.0,7.0,49,0.00,,,0.04,VWS V14.01,2013-08-13 22:05:00,
2013-08-13 16:09:00,81.6,55.0,29.93,ENE,61,3.0,4.0,40,0.00,,,0.04,VWS V14.01,2013-08-13 22:09:00,
2013-08-13 16:10:00,76.9,56.3,29.96,WSW,238,0.0,6.0,49,0.00,,,0.04,VWS V14.01,2013-08-13 22:10:00,
2013-08-13 16:14:00,81.2,55.3,29.93,SW,222,0.0,2.0,41,0.00,,,0.04,VWS V14.01,2013-08-13 22:14:00,
2013-08-13 16:15:00,76.7,56.1,29.96,SSW,198,7.0,8.0,49,0.00,,,0.04,VWS V14.01,2013-08-13 22:15:00,
2013-08-13 16:19:00,80.8,54.2,29.93,ESE,104,2.0,3.0,40,0.00,,,0.04,VWS V14.01,2013-08-13 22:19:00,
2013-08-13 16:20:00,76.5,55.9,29.95,South,183,3.0,9.0,49,0.00,,,0.04,VWS V14.01,2013-08-13 22:20:00,
2013-08-13 16:24:00,80.0,54.9,29.93,East,87,1.0,3.0,42,0.00,,,0.04,VWS V14.01,2013-08-13 22:24:00,
2013-08-13 16:25:00,76.7,56.1,29.96,SSW,197,4.0,8.0,49,0.00,,,0.04,VWS V14.01,2013-08-13 22:25:00,
2013-08-13 16:29:00,79.4,53.7,29.93,East,100,1.0,1.0,41,0.00,,,0.04,VWS V14.01,2013-08-13 22:29:00,
2013-08-13 16:30:00,77.3,56.7,29.95,SSE,161,4.0,8.0,49,0.00,,,0.04,VWS V14.01,2013-08-13 22:30:00,
2013-08-13 16:34:00,79.1,54.1,29.93,East,101,0.0,1.0,42,0.00,,,0.04,VWS V14.01,2013-08-13 22:34:00,
2013-08-13 16:35:00,77.7,56.5,29.95,South,191,4.0,7.0,48,0.00,,,0.04,VWS V14.01,2013-08-13 22:35:00,
2013-08-13 16:39:00,78.9,53.9,29.93,East,100,0.0,0.0,42,0.00,,,0.04,VWS V14.01,2013-08-13 22:39:00,
2013-08-13 16:40:00,77.9,56.7,29.95,SE,136,5.0,7.0,48,0.00,,,0.04,VWS V14.01,2013-08-13 22:40:00,
2013-08-13 16:44:00,78.8,57.5,29.93,East,100,0.0,0.0,48,0.00,,,0.04,VWS V14.01,2013-08-13 22:44:00,
2013-08-13 16:45:00,78.5,57.8,29.95,SE,143,1.0,7.0,49,0.00,,,0.04,VWS V14.01,2013-08-13 22:45:00,
2013-08-13 16:49:00,78.5,57.2,29.93,South,174,2.0,2.0,48,0.00,,,0.04,VWS V14.01,2013-08-13 22:49:00,
2013-08-13 16:50:00,79.3,57.3,29.95,South,176,5.0,5.0,47,0.00,,,0.04,VWS V14.01,2013-08-13 22:50:00,
2013-08-13 16:54:00,77.7,57.6,29.93,SSE,155,1.0,2.0,50,0.00,,,0.04,VWS V14.01,2013-08-13 22:54:00,
2013-08-13 16:55:00,80.3,57.7,29.94,ESE,108,4.0,5.0,46,0.00,,,0.04,VWS V14.01,2013-08-13 22:55:00,
2013-08-13 16:59:00,76.6,57.1,29.93,South,170,2.0,3.0,51,0.00,,,0.04,VWS V14.01,2013-08-13 22:59:00,
2013-08-13 17:00:00,81.2,56.0,29.94,East,82,4.0,6.0,42,0.00,,,0.04,VWS V14.01,2013-08-13 23:00:00,
2013-08-13 17:04:00,75.9,57.6,29.93,SSW,210,3.0,4.0,53,0.00,,,0.04,VWS V14.01,2013-08-13 23:04:00,
2013-08-13 17:09:00,75.5,57.7,29.92,SSW,205,2.0,5.0,54,0.00,,,0.04,VWS V14.01,2013-08-13 23:09:00,
2013-08-13 17:10:00,81.5,53.5,29.93,NNE,12,1.0,4.0,38,0.00,,,0.04,VWS V14.01,2013-08-13 23:10:00,
2013-08-13 17:14:00,75.2,57.9,29.92,SE,131,2.0,3.0,55,0.00,,,0.04,VWS V14.01,2013-08-13 23:14:00,
2013-08-13 17:15:00,81.2,54.6,29.94,SE,144,2.0,2.0,40,0.00,,,0.04,VWS V14.01,2013-08-13 23:15:00,
2013-08-13 17:19:00,74.9,58.2,29.92,SE,145,1.0,2.0,56,0.00,,,0.04,VWS V14.01,2013-08-13 23:19:00,
2013-08-13 17:20:00,80.6,54.1,29.93,East,101,1.0,3.0,40,0.00,,,0.04,VWS V14.01,2013-08-13 23:20:00,
2013-08-13 17:24:00,74.8,57.6,29.92,SSE,155,1.0,1.0,55,0.00,,,0.04,VWS V14.01,2013-08-13 23:24:00,
2013-08-13 17:25:00,79.8,54.7,29.93,East,90,1.0,3.0,42,0.00,,,0.04,VWS V14.01,2013-08-13 23:25:00,
2013-08-13 17:29:00,74.9,57.7,29.92,SSW,203,1.0,2.0,55,0.00,,,0.04,VWS V14.01,2013-08-13 23:29:00,
2013-08-13 17:34:00,75.0,57.8,29.92,WSW,238,1.0,2.0,55,0.00,,,0.04,VWS V14.01,2013-08-13 23:34:00,
2013-08-13 17:39:00,75.1,58.8,29.92,West,266,1.0,2.0,57,0.00,,,0.04,VWS V14.01,2013-08-13 23:39:00,
2013-08-13 17:40:00,78.9,55.2,29.93,East,100,0.0,0.0,44,0.00,,,0.04,VWS V14.01,2013-08-13 23:40:00,
2013-08-13 17:44:00,75.2,59.4,29.92,West,259,1.0,2.0,58,0.00,,,0.04,VWS V14.01,2013-08-13 23:44:00,
2013-08-13 17:45:00,78.7,58.0,29.93,East,101,0.0,0.0,49,0.00,,,0.04,VWS V14.01,2013-08-13 23:45:00,
2013-08-13 17:49:00,75.0,59.2,29.92,West,262,1.0,2.0,58,0.00,,,0.04,VWS V14.01,2013-08-13 23:49:00,
2013-08-13 17:50:00,78.3,57.0,29.93,SE,127,1.0,2.0,48,0.00,,,0.04,VWS V14.01,2013-08-13 23:50:00,
2013-08-13 17:54:00,75.2,57.9,29.92,SW,235,2.0,3.0,55,0.00,,,0.04,VWS V14.01,2013-08-13 23:54:00,
2013-08-13 17:59:00,75.3,57.0,29.92,SW,236,1.0,2.0,53,0.00,,,0.04,VWS V14.01,2013-08-13 23:59:00,
2013-08-13 18:04:00,75.3,57.0,29.92,WSW,237,0.0,0.0,53,0.00,,,0.04,VWS V14.01,2013-08-14 00:04:00,
2013-08-13 18:05:00,75.8,57.5,29.93,SSW,194,4.0,6.0,53,0.00,,,0.04,VWS V14.01,2013-08-14 00:05:00,
2013-08-13 18:09:00,75.3,58.0,29.92,SW,236,0.0,0.0,55,0.00,,,0.04,VWS V14.01,2013-08-14 00:09:00,
2013-08-13 18:10:00,75.4,57.6,29.92,ESE,122,2.0,5.0,54,0.00,,,0.04,VWS V14.01,2013-08-14 00:10:00,
2013-08-13 18:14:00,75.3,56.5,29.92,SW,236,0.0,0.0,52,0.00,,,0.04,VWS V14.01,2013-08-14 00:14:00,
2013-08-13 18:15:00,75.1,57.8,29.92,SSE,150,1.0,3.0,55,0.00,,,0.04,VWS V14.01,2013-08-14 00:15:00,
2013-08-13 18:19:00,75.2,55.8,29.92,WSW,237,0.0,0.0,51,0.00,,,0.04,VWS V14.01,2013-08-14 00:19:00,
2013-08-13 18:20:00,74.9,57.7,29.92,SSE,149,0.0,2.0,55,0.00,,,0.04,VWS V14.01,2013-08-14 00:20:00,
2013-08-13 18:24:00,74.8,59.0,29.92,SW,236,0.0,0.0,58,0.00,,,0.04,VWS V14.01,2013-08-14 00:24:00,
2013-08-13 18:29:00,74.6,58.9,29.92,WSW,237,0.0,0.0,58,0.00,,,0.04,VWS V14.01,2013-08-14 00:29:00,
2013-08-13 18:30:00,74.9,57.7,29.92,WSW,240,1.0,2.0,55,0.00,,,0.04,VWS V14.01,2013-08-14 00:30:00,
2013-08-13 18:34:00,74.4,61.4,29.92,East,91,0.0,1.0,64,0.00,,,0.04,VWS V14.01,2013-08-14 00:34:00,
2013-08-13 18:35:00,75.0,57.8,29.92,WSW,237,1.0,2.0,55,0.00,,,0.04,VWS V14.01,2013-08-14 00:35:00,
2013-08-13 18:39:00,73.9,61.0,29.93,NNE,19,0.0,0.0,64,0.00,,,0.04,VWS V14.01,2013-08-14 00:39:00,
2013-08-13 18:40:00,75.2,59.4,29.92,WSW,255,2.0,2.0,58,0.00,,,0.04,VWS V14.01,2013-08-14 00:40:00,
2013-08-13 18:44:00,73.5,60.6,29.93,North,349,3.0,4.0,64,0.00,,,0.04,VWS V14.01,2013-08-14 00:44:00,
2013-08-13 18:45:00,75.1,59.3,29.92,West,259,1.0,2.0,58,0.00,,,0.04,VWS V14.01,2013-08-14 00:45:00,
2013-08-13 18:49:00,72.8,60.4,29.93,NNW,340,3.0,4.0,65,0.00,,,0.04,VWS V14.01,2013-08-14 00:49:00,
2013-08-13 18:50:00,75.1,59.3,29.92,WSW,237,2.0,3.0,58,0.00,,,0.04,VWS V14.01,2013-08-14 00:50:00,
2013-08-13 18:54:00,72.5,60.9,29.93,NNW,348,2.0,3.0,67,0.00,,,0.04,VWS V14.01,2013-08-14 00:54:00,
2013-08-13 18:55:00,75.2,57.4,29.92,SW,226,2.0,4.0,54,0.00,,,0.04,VWS V14.01,2013-08-14 00:55:00,
2013-08-13 18:59:00,72.3,61.6,29.93,NNW,348,2.0,3.0,69,0.00,,,0.04,VWS V14.01,2013-08-14 00:59:00,
2013-08-13 19:00:00,75.3,58.0,29.92,SW,236,0.0,2.0,55,0.00,,,0.04,VWS V14.01,2013-08-14 01:00:00,
2013-08-13 19:04:00,72.2,61.5,29.93,NNW,342,5.0,6.0,69,0.00,,,0.04,VWS V14.01,2013-08-14 01:04:00,
2013-08-13 19:05:00,75.3,57.0,29.92,WSW,237,0.0,0.0,53,0.00,,,0.04,VWS V14.01,2013-08-14 01:05:00,
2013-08-13 19:09:00,72.4,58.7,29.93,NW,321,6.0,10.0,62,0.00,,,0.04,VWS V14.01,2013-08-14 01:09:00,
2013-08-13 19:10:00,75.3,57.0,29.92,SW,236,0.0,0.0,53,0.00,,,0.04,VWS V14.01,2013-08-14 01:10:00,
2013-08-13 19:14:00,72.9,57.8,29.93,NW,326,8.0,10.0,59,0.00,,,0.04,VWS V14.01,2013-08-14 01:14:00,
2013-08-13 19:15:00,75.3,57.0,29.92,WSW,237,0.0,0.0,53,0.00,,,0.04,VWS V14.01,2013-08-14 01:15:00,
2013-08-13 19:19:00,72.9,57.8,29.93,NNW,328,6.0,7.0,59,0.00,,,0.04,VWS V14.01,2013-08-14 01:19:00,
2013-08-13 19:20:00,75.1,58.8,29.92,SW,236,0.0,0.0,57,0.00,,,0.04,VWS V14.01,2013-08-14 01:20:00,
2013-08-13 19:24:00,73.1,57.5,29.93,NW,316,5.0,7.0,58,0.00,,,0.04,VWS V14.01,2013-08-14 01:24:00,
2013-08-13 19:25:00,74.7,59.0,29.92,WSW,237,0.0,0.0,58,0.00,,,0.04,VWS V14.01,2013-08-14 01:25:00,
2013-08-13 19:29:00,73.2,57.1,29.93,NNW,338,4.0,6.0,57,0.00,,,0.04,VWS V14.01,2013-08-14 01:29:00,
2013-08-13 19:30:00,74.6,58.9,29.92,WSW,237,0.0,0.0,58,0.00,,,0.04,VWS V14.01,2013-08-14 01:30:00,
2013-08-13 19:34:00,73.2,57.1,29.93,NNW,337,6.0,7.0,57,0.00,,,0.04,VWS V14.01,2013-08-14 01:34:00,
2013-08-13 19:35:00,74.3,61.3,29.92,East,92,0.0,1.0,64,0.00,,,0.04,VWS V14.01,2013-08-14 01:35:00,
2013-08-13 19:39:00,73.0,57.4,29.93,NNW,328,3.0,6.0,58,0.00,,,0.04,VWS V14.01,2013-08-14 01:39:00,
2013-08-13 19:40:00,73.9,61.0,29.93,North,350,2.0,3.0,64,0.00,,,0.04,VWS V14.01,2013-08-14 01:40:00,
2013-08-13 19:44:00,72.7,57.1,29.93,NW,316,4.0,6.0,58,0.00,,,0.04,VWS V14.01,2013-08-14 01:44:00,
2013-08-13 19:45:00,73.4,60.0,29.93,North,354,3.0,4.0,63,0.00,,,0.04,VWS V14.01,2013-08-14 01:45:00,
2013-08-13 19:49:00,72.4,56.8,29.93,NW,315,3.0,6.0,58,0.00,,,0.04,VWS V14.01,2013-08-14 01:49:00,
2013-08-13 19:50:00,72.7,60.3,29.93,NNW,339,2.0,4.0,65,0.00,,,0.04,VWS V14.01,2013-08-14 01:50:00,
2013-08-13 19:54:00,72.2,56.1,29.93,NW,312,4.0,6.0,57,0.00,,,0.04,VWS V14.01,2013-08-14 01:54:00,
2013-08-13 19:55:00,72.4,60.8,29.93,NNE,14,3.0,3.0,67,0.00,,,0.04,VWS V14.01,2013-08-14 01:55:00,
2013-08-13 19:59:00,71.8,55.8,29.93,NW,317,5.0,7.0,57,0.00,,,0.04,VWS V14.01,2013-08-14 01:59:00,
2013-08-13 20:00:00,72.3,61.6,29.93,NNW,342,4.0,4.0,69,0.00,,,0.04,VWS V14.01,2013-08-14 02:00:00,
2013-08-13 20:04:00,71.6,55.1,29.93,NW,317,3.0,8.0,56,0.00,,,0.04,VWS V14.01,2013-08-14 02:04:00,
2013-08-13 20:05:00,72.2,61.1,29.93,North,352,4.0,6.0,68,0.00,,,0.04,VWS V14.01,2013-08-14 02:05:00,
2013-08-13 20:09:00,71.1,55.1,29.93,NNW,328,2.0,4.0,57,0.00,,,0.04,VWS V14.01,2013-08-14 02:09:00,
2013-08-13 20:10:00,72.5,58.8,29.93,NNW,337,6.0,10.0,62,0.00,,,0.04,VWS V14.01,2013-08-14 02:10:00,
2013-08-13 20:14:00,70.6,54.2,29.93,NW,323,3.0,6.0,56,0.00,,,0.04,VWS V14.01,2013-08-14 02:14:00,
2013-08-13 20:15:00,72.9,57.3,29.93,NW,321,4.0,10.0,58,0.00,,,0.04,VWS V14.01,2013-08-14 02:15:00,
2013-08-13 20:19:00,70.2,53.8,29.93,NW,309,4.0,7.0,56,0.00,,,0.04,VWS V14.01,2013-08-14 02:19:00,
2013-08-13 20:20:00,72.9,57.3,29.93,NW,318,7.0,7.0,58,0.00,,,0.04,VWS V14.01,2013-08-14 02:20:00,
2013-08-13 20:24:00,69.7,53.8,29.93,NW,319,2.0,5.0,57,0.00,,,0.04,VWS V14.01,2013-08-14 02:24:00,
2013-08-13 20:25:00,73.2,57.5,29.93,NNW,333,3.0,7.0,58,0.00,,,0.04,VWS V14.01,2013-08-14 02:25:00,
2013-08-13 20:29:00,69.2,54.3,29.93,West,274,1.0,2.0,59,0.00,,,0.04,VWS V14.01,2013-08-14 02:29:00,
2013-08-13 20:30:00,73.2,57.1,29.93,NNW,335,4.0,7.0,57,0.00,,,0.04,VWS V14.01,2013-08-14 02:30:00,
2013-08-13 20:34:00,68.8,53.4,29.93,West,269,2.0,4.0,58,0.00,,,0.04,VWS V14.01,2013-08-14 02:34:00,
2013-08-13 20:35:00,73.2,57.1,29.93,NW,326,4.0,7.0,57,0.00,,,0.04,VWS V14.01,2013-08-14 02:35:00,
2013-08-13 20:39:00,68.0,53.6,29.93,West,263,1.0,2.0,60,0.00,,,0.04,VWS V14.01,2013-08-14 02:39:00,
2013-08-13 20:40:00,72.9,57.8,29.93,NW,319,4.0,6.0,59,0.00,,,0.04,VWS V14.01,2013-08-14 02:40:00,
2013-08-13 20:44:00,67.4,53.5,29.93,WNW,284,1.0,2.0,61,0.00,,,0.04,VWS V14.01,2013-08-14 02:44:00,
2013-08-13 20:45:00,72.6,57.0,29.93,NW,316,6.0,6.0,58,0.00,,,0.04,VWS V14.01,2013-08-14 02:45:00,
2013-08-13 20:49:00,67.2,53.3,29.93,WNW,293,2.0,2.0,61,0.00,,,0.04,VWS V14.01,2013-08-14 02:49:00,
2013-08-13 20:50:00,72.3,56.7,29.93,NW,308,4.0,6.0,58,0.00,,,0.04,VWS V14.01,2013-08-14 02:50:00,
2013-08-13 20:54:00,66.9,53.0,29.93,West,281,1.0,3.0,61,0.00,,,0.04,VWS V14.01,2013-08-14 02:54:00,
2013-08-13 20:55:00,72.1,56.5,29.93,NW,316,3.0,6.0,58,0.00,,,0.04,VWS V14.01,2013-08-14 02:55:00,
2013-08-13 20:59:00,66.8,52.9,29.94,WNW,291,2.0,3.0,61,0.00,,,0.04,VWS V14.01,2013-08-14 02:59:00,
2013-08-13 21:00:00,71.8,55.8,29.93,NW,316,4.0,7.0,57,0.00,,,0.04,VWS V14.01,2013-08-14 03:00:00,
2013-08-13 21:04:00,66.6,52.8,29.94,WNW,294,1.0,4.0,61,0.00,,,0.04,VWS V14.01,2013-08-14 03:04:00,
2013-08-13 21:05:00,71.6,55.6,29.93,NW,326,2.0,8.0,57,0.00,,,0.04,VWS V14.01,2013-08-14 03:05:00,
2013-08-13 21:09:00,66.6,52.8,29.94,NNW,339,2.0,4.0,61,0.00,,,0.04,VWS V14.01,2013-08-14 03:09:00,
2013-08-13 21:10:00,71.1,55.6,29.93,NW,317,3.0,4.0,58,0.00,,,0.04,VWS V14.01,2013-08-14 03:10:00,
2013-08-13 21:14:00,66.0,52.6,29.94,WNW,302,2.0,4.0,62,0.00,,,0.04,VWS V14.01,2013-08-14 03:14:00,
2013-08-13 21:15:00,70.6,54.6,29.93,NNW,335,4.0,6.0,57,0.00,,,0.04,VWS V14.01,2013-08-14 03:15:00,
2013-08-13 21:20:00,66.0,53.1,29.94,WNW,283,2.0,3.0,63,0.00,,,0.04,VWS V14.01,2013-08-14 03:20:00,
2013-08-13 21:25:00,66.6,53.2,29.94,WNW,298,4.0,6.0,62,0.00,,,0.04,VWS V14.01,2013-08-14 03:25:00,
2013-08-13 21:30:00,67.0,52.7,29.94,WNW,284,3.0,7.0,60,0.00,,,0.04,VWS V14.01,2013-08-14 03:30:00,
2013-08-13 21:35:00,66.4,53.0,29.94,WSW,256,3.0,3.0,62,0.00,,,0.04,VWS V14.01,2013-08-14 03:35:00,
2013-08-13 21:40:00,64.9,52.5,29.94,WSW,257,2.0,3.0,64,0.00,,,0.04,VWS V14.01,2013-08-14 03:40:00,
2013-08-13 21:45:00,64.0,52.4,29.94,West,269,4.0,4.0,66,0.00,,,0.04,VWS V14.01,2013-08-14 03:45:00,
2013-08-13 21:50:00,63.9,52.3,29.94,West,266,4.0,5.0,66,0.00,,,0.04,VWS V14.01,2013-08-14 03:50:00,
2013-08-13 21:55:00,64.3,51.9,29.94,West,273,3.0,4.0,64,0.00,,,0.04,VWS V14.01,2013-08-14 03:55:00,
2013-08-13 22:00:00,64.8,51.5,29.94,WNW,287,3.0,4.0,62,0.00,,,0.04,VWS V14.01,2013-08-14 04:00:00,
2013-08-13 22:01:00,65.0,51.7,29.93,West,268,2.0,3.0,62,0.00,,,0.04,VWS V14.01,2013-08-14 04:01:00,
2013-08-13 22:05:00,66.6,52.8,29.94,WNW,295,2.0,4.0,61,0.00,,,0.04,VWS V14.01,2013-08-14 04:05:00,
2013-08-13 22:06:00,65.3,51.5,29.94,West,277,3.0,5.0,61,0.00,,,0.04,VWS V14.01,2013-08-14 04:06:00,
2013-08-13 22:10:00,66.5,52.7,29.94,North,352,2.0,4.0,61,0.00,,,0.04,VWS V14.01,2013-08-14 04:10:00,
2013-08-13 22:11:00,65.4,51.2,29.94,WNW,283,4.0,4.0,60,0.00,,,0.04,VWS V14.01,2013-08-14 04:11:00,
2013-08-13 22:15:00,66.0,52.6,29.94,WNW,302,2.0,4.0,62,0.00,,,0.04,VWS V14.01,2013-08-14 04:15:00,
2013-08-13 22:16:00,66.0,50.8,29.94,WSW,253,3.0,5.0,58,0.00,,,0.04,VWS V14.01,2013-08-14 04:16:00,
2013-08-13 22:20:00,66.0,53.1,29.94,WNW,298,2.0,3.0,63,0.00,,,0.04,VWS V14.01,2013-08-14 04:20:00,
2013-08-13 22:21:00,65.7,51.0,29.94,West,273,4.0,4.0,59,0.00,,,0.04,VWS V14.01,2013-08-14 04:21:00,
2013-08-13 22:25:00,66.6,53.2,29.94,WNW,298,3.0,6.0,62,0.00,,,0.04,VWS V14.01,2013-08-14 04:25:00,
2013-08-13 22:26:00,65.3,50.6,29.94,West,274,2.0,3.0,59,0.00,,,0.04,VWS V14.01,2013-08-14 04:26:00,
2013-08-13 22:30:00,67.1,52.8,29.94,WNW,288,3.0,7.0,60,0.00,,,0.04,VWS V14.01,2013-08-14 04:30:00,
2013-08-13 22:31:00,65.0,50.8,29.94,West,273,0.0,1.0,60,0.00,,,0.04,VWS V14.01,2013-08-14 04:31:00,
2013-08-13 22:35:00,66.2,52.8,29.94,WSW,255,3.0,3.0,62,0.00,,,0.04,VWS V14.01,2013-08-14 04:35:00,
2013-08-13 22:36:00,64.8,50.6,29.94,West,271,1.0,1.0,60,0.00,,,0.04,VWS V14.01,2013-08-14 04:36:00,
2013-08-13 22:40:00,64.8,52.3,29.94,WSW,255,4.0,4.0,64,0.00,,,0.04,VWS V14.01,2013-08-14 04:40:00,
2013-08-13 22:41:00,64.7,50.5,29.94,West,266,1.0,2.0,60,0.00,,,0.04,VWS V14.01,2013-08-14 04:41:00,
2013-08-13 22:45:00,64.0,52.4,29.94,West,280,3.0,4.0,66,0.00,,,0.04,VWS V14.01,2013-08-14 04:45:00,
2013-08-13 22:46:00,64.7,50.5,29.94,WSW,257,3.0,3.0,60,0.00,,,0.04,VWS V14.01,2013-08-14 04:46:00,
2013-08-13 22:50:00,63.9,52.3,29.94,West,262,3.0,5.0,66,0.00,,,0.04,VWS V14.01,2013-08-14 04:50:00,
2013-08-13 22:51:00,64.5,50.3,29.94,West,260,2.0,3.0,60,0.00,,,0.04,VWS V14.01,2013-08-14 04:51:00,
2013-08-13 22:55:00,64.4,52.0,29.94,WSW,255,3.0,4.0,64,0.00,,,0.04,VWS V14.01,2013-08-14 04:55:00,
2013-08-13 22:56:00,64.0,50.3,29.94,West,270,1.0,2.0,61,0.00,,,0.04,VWS V14.01,2013-08-14 04:56:00,
2013-08-13 23:00:00,64.9,51.6,29.94,WNW,289,3.0,4.0,62,0.00,,,0.04,VWS V14.01,2013-08-14 05:00:00,
2013-08-13 23:01:00,63.7,50.0,29.94,West,266,2.0,2.0,61,0.00,,,0.04,VWS V14.01,2013-08-14 05:01:00,
2013-08-13 23:05:00,65.3,51.5,29.94,WNW,293,3.0,4.0,61,0.00,,,0.04,VWS V14.01,2013-08-14 05:05:00,
2013-08-13 23:06:00,63.6,49.9,29.94,West,268,2.0,2.0,61,0.00,,,0.04,VWS V14.01,2013-08-14 05:06:00,
2013-08-13 23:10:00,65.5,51.3,29.94,West,266,3.0,5.0,60,0.00,,,0.04,VWS V14.01,2013-08-14 05:10:00,
2013-08-13 23:11:00,63.3,50.1,29.94,WSW,241,1.0,3.0,62,0.00,,,0.04,VWS V14.01,2013-08-14 05:11:00,
2013-08-13 23:15:00,65.9,51.2,29.94,West,281,4.0,6.0,59,0.00,,,0.04,VWS V14.01,2013-08-14 05:15:00,
2013-08-13 23:16:00,63.1,50.3,29.94,West,259,2.0,3.0,63,0.00,,,0.04,VWS V14.01,2013-08-14 05:16:00,
2013-08-13 23:20:00,65.7,51.0,29.94,West,264,3.0,5.0,59,0.00,,,0.04,VWS V14.01,2013-08-14 05:20:00,
2013-08-13 23:21:00,62.3,50.0,29.94,NNE,15,0.0,2.0,64,0.00,,,0.04,VWS V14.01,2013-08-14 05:21:00,
2013-08-13 23:25:00,65.5,50.8,29.94,West,267,2.0,4.0,59,0.00,,,0.04,VWS V14.01,2013-08-14 05:25:00,
2013-08-13 23:26:00,61.8,49.9,29.94,NNE,16,1.0,2.0,65,0.00,,,0.04,VWS V14.01,2013-08-14 05:26:00,
2013-08-13 23:30:00,65.1,50.4,29.94,West,273,1.0,3.0,59,0.00,,,0.04,VWS V14.01,2013-08-14 05:30:00,
2013-08-13 23:31:00,61.1,50.1,29.94,NNE,16,0.0,0.0,67,0.00,,,0.04,VWS V14.01,2013-08-14 05:31:00,
2013-08-13 23:35:00,64.8,50.6,29.94,West,273,1.0,2.0,60,0.00,,,0.04,VWS V14.01,2013-08-14 05:35:00,
2013-08-13 23:36:00,60.3,50.1,29.94,ENE,72,0.0,1.0,69,0.00,,,0.04,VWS V14.01,2013-08-14 05:36:00,
2013-08-13 23:40:00,64.8,50.6,29.94,West,262,1.0,2.0,60,0.00,,,0.04,VWS V14.01,2013-08-14 05:40:00,
2013-08-13 23:41:00,59.8,50.0,29.94,ENE,72,0.0,0.0,70,0.00,,,0.04,VWS V14.01,2013-08-14 05:41:00,
2013-08-13 23:45:00,64.7,50.5,29.94,West,266,2.0,3.0,60,0.00,,,0.04,VWS V14.01,2013-08-14 05:45:00,
2013-08-13 23:46:00,59.9,50.9,29.94,ENE,72,2.0,2.0,72,0.00,,,0.04,VWS V14.01,2013-08-14 05:46:00,
2013-08-13 23:50:00,64.5,50.3,29.94,West,265,2.0,3.0,60,0.00,,,0.04,VWS V14.01,2013-08-14 05:50:00,
2013-08-13 23:51:00,59.9,51.6,29.94,ENE,72,2.0,2.0,74,0.00,,,0.04,VWS V14.01,2013-08-14 05:51:00,
2013-08-13 23:55:00,64.1,50.4,29.94,West,274,2.0,3.0,61,0.00,,,0.04,VWS V14.01,2013-08-14 05:55:00,
2013-08-13 23:56:00,59.9,52.0,29.94,NE,49,3.0,3.0,75,0.00,,,0.04,VWS V14.01,2013-08-14 05:56:00,